Weather History for Monroe, MI

Change the Weather History Date:

Tuesday, April 29, 2014

  Actual Average Record
Temperature  
Mean Temperature 60 °F -  
Max Temperature 75 °F 61 °F 85 °F (1986)
Min Temperature 46 °F 42 °F 27 °F (1977)
Degree Days  
Heating Degree Days 4    
Growing Degree Days 10 (Base 50)    
Moisture  
Dew Point 51 °F    
Average Humidity 77    
Maximum Humidity 100    
Minimum Humidity 34    
Precipitation  
Precipitation 0.00 in - - ()
Sea Level Pressure  
Sea Level Pressure 29.65 in    
Wind  
Wind Speed 12 mph (SE)    
Max Wind Speed 26 mph    
Max Gust Speed 53 mph    
Visibility 8 miles    
Events Rain    
Averages and records for this station are not official NWS values.
T = Trace of Precipitation, MM = Missing Value Source: NWS Daily Summary

Daily Weather History Graph

Daily Weather History Graph

Search for Another Location

Airport:

Trip Planner

Search our weather history database for the weather conditions in past years. The results will help you decide how hot, cold, wet, or windy it might be!

Date:

Astronomy

Apr. 29, 2014 Rise Set
Actual Time 6:32 AM EDT 8:30 PM EDT
Civil Twilight 6:02 AM EDT 9:00 PM EDT
Nautical Twilight 5:25 AM EDT 9:37 PM EDT
Astronomical Twilight 4:45 AM EDT 10:17 PM EDT
Moon 6:50 AM EDT (4/29) 9:09 PM EDT (4/29)
Length of Visible Light 14h 58m
Length of Day
13h 57m
New Moon, 0% of the Moon is Illuminated
Apr 29
New Moon
May 6
First Quarter
May 14
Full
May 21
Last Quarter
May 28
New

Hourly Weather History & Observations

Time (EDT) Temp. Windchill Dew Point Humidity Pressure Visibility Wind Dir Wind Speed Gust Speed Precip Events Conditions
12:16 AM 48.2 °F - 39.2 °F 71% 29.76 in 10.0 mi East 17.3 mph 26.5 mph N/A   Overcast
12:36 AM 48.2 °F - 41.0 °F 76% 29.77 in 10.0 mi East 15.0 mph 20.7 mph N/A   Overcast
12:56 AM 48.2 °F - 41.0 °F 76% 29.75 in 10.0 mi East 13.8 mph 21.9 mph N/A   Overcast
1:16 AM 48.2 °F - 42.8 °F 82% 29.73 in 10.0 mi East 15.0 mph 20.7 mph N/A   Overcast
1:31 AM 48.2 °F - 42.8 °F 82% 29.72 in 10.0 mi East 15.0 mph 20.7 mph N/A   Overcast
1:51 AM 48.2 °F - 42.8 °F 82% 29.70 in 10.0 mi East 15.0 mph 21.9 mph N/A   Overcast
2:11 AM 48.2 °F - 44.6 °F 87% 29.70 in 7.0 mi East 11.5 mph 20.7 mph N/A Rain Rain
2:31 AM 46.4 °F 40.4 °F 44.6 °F 93% 29.69 in 1.8 mi East 13.8 mph 18.4 mph N/A Rain Rain
2:52 AM 46.4 °F 41.1 °F 44.6 °F 93% 29.68 in 7.0 mi East 11.5 mph 20.7 mph N/A Rain Light Rain
3:12 AM 46.4 °F 40.4 °F 44.6 °F 93% 29.66 in 7.0 mi East 13.8 mph 18.4 mph N/A Rain Light Rain
3:32 AM 46.4 °F 41.1 °F 44.6 °F 93% 29.65 in 7.0 mi East 11.5 mph 18.4 mph N/A   Light Drizzle
3:52 AM 46.4 °F 40.4 °F 44.6 °F 93% 29.64 in 5.0 mi East 13.8 mph 21.9 mph N/A Rain Light Rain
4:12 AM 46.4 °F 40.1 °F 44.6 °F 93% 29.64 in 5.0 mi East 15.0 mph - N/A Rain Light Rain
4:32 AM 46.4 °F 41.5 °F 46.4 °F 100% 29.63 in 5.0 mi East 10.4 mph 19.6 mph N/A   Overcast
5:12 AM 48.2 °F - 46.4 °F 93% 29.60 in 4.0 mi East 13.8 mph 18.4 mph N/A Rain Light Rain
5:33 AM 48.2 °F - 48.2 °F 100% 29.58 in 4.0 mi East 11.5 mph 18.4 mph N/A Rain Light Rain
5:53 AM 48.2 °F - 48.2 °F 100% 29.56 in 4.0 mi East 15.0 mph 19.6 mph N/A Rain Light Rain
6:13 AM 48.2 °F - 48.2 °F 100% 29.56 in 4.0 mi East 10.4 mph 18.4 mph N/A   Light Drizzle
6:33 AM 50.0 °F - 48.2 °F 94% 29.56 in 3.0 mi East 16.1 mph - N/A   Overcast
6:53 AM 50.0 °F - 48.2 °F 94% 29.54 in 2.0 mi East 11.5 mph 17.3 mph N/A   Overcast
7:13 AM 51.8 °F - 50.0 °F 94% 29.55 in 2.0 mi ESE 9.2 mph 16.1 mph N/A Rain Light Rain
7:33 AM 51.8 °F - 50.0 °F 94% 29.55 in 1.5 mi ESE 10.4 mph 16.1 mph N/A   Overcast
7:53 AM 51.8 °F - 51.8 °F 100% 29.54 in 1.5 mi ESE 9.2 mph - N/A   Overcast
8:13 AM 51.8 °F - 51.8 °F 100% 29.54 in 2.0 mi ESE 9.2 mph - N/A   Overcast
8:33 AM 53.6 °F - 51.8 °F 94% 29.54 in 2.0 mi ESE 6.9 mph - N/A Rain Rain
8:54 AM 53.6 °F - 53.6 °F 100% 29.54 in 3.0 mi ESE 5.8 mph - N/A Rain Rain
9:14 AM 55.4 °F - 53.6 °F 94% 29.55 in 4.0 mi SSE 8.1 mph - N/A Rain Light Rain
9:34 AM 55.4 °F - 53.6 °F 94% 29.56 in 1.2 mi Calm Calm - N/A Rain Heavy Rain
9:54 AM 57.2 °F - 55.4 °F 94% 29.55 in 10.0 mi SSE 6.9 mph - N/A Rain Light Rain
10:14 AM 57.2 °F - 55.4 °F 94% 29.56 in 10.0 mi ESE 6.9 mph - N/A Rain Light Rain
10:34 AM 57.2 °F - 57.2 °F 100% 29.55 in 10.0 mi SE 5.8 mph - N/A   Scattered Clouds
10:54 AM 60.8 °F - 59.0 °F 94% 29.55 in 10.0 mi SE 6.9 mph - N/A   Scattered Clouds
11:14 AM 62.6 °F - 60.8 °F 94% 29.56 in 10.0 mi SE 9.2 mph - N/A   Mostly Cloudy
11:34 AM 64.4 °F - 60.8 °F 88% 29.57 in 10.0 mi SE 6.9 mph - N/A   Mostly Cloudy
11:55 AM 64.4 °F - 60.8 °F 88% 29.58 in 10.0 mi SE 10.4 mph - N/A   Overcast
12:15 PM 64.4 °F - 60.8 °F 88% 29.59 in 10.0 mi SE 6.9 mph - N/A   Mostly Cloudy
12:35 PM 66.2 °F - 62.6 °F 88% 29.58 in 10.0 mi SE 8.1 mph - N/A   Mostly Cloudy
12:55 PM 68.0 °F - 60.8 °F 78% 29.59 in 10.0 mi SSE 8.1 mph - N/A   Mostly Cloudy
1:15 PM 69.8 °F - 59.0 °F 68% 29.59 in 10.0 mi SSE 5.8 mph - N/A   Mostly Cloudy
1:35 PM 69.8 °F - 59.0 °F 68% 29.60 in 10.0 mi SE 4.6 mph - N/A   Scattered Clouds
1:55 PM 69.8 °F - 60.8 °F 73% 29.60 in 10.0 mi ESE 6.9 mph - N/A   Mostly Cloudy
2:15 PM 68.0 °F - 57.2 °F 68% 29.61 in 10.0 mi Calm Calm - N/A   Mostly Cloudy
2:35 PM 73.4 °F - 57.2 °F 57% 29.61 in 10.0 mi Calm Calm - N/A   Scattered Clouds
2:56 PM 75.2 °F - 53.6 °F 47% 29.62 in 10.0 mi South 10.4 mph - N/A   Scattered Clouds
3:16 PM 75.2 °F - 51.8 °F 44% 29.63 in 10.0 mi SSW 10.4 mph 18.4 mph N/A   Scattered Clouds
3:36 PM 75.2 °F - 48.2 °F 38% 29.63 in 10.0 mi SSW 12.7 mph 18.4 mph N/A   Scattered Clouds
3:56 PM 75.2 °F - 46.4 °F 36% 29.63 in 10.0 mi SSW 11.5 mph 20.7 mph N/A   Scattered Clouds
4:16 PM 75.2 °F - 46.4 °F 36% 29.64 in 10.0 mi SSW 19.6 mph 24.2 mph N/A   Clear
4:36 PM 75.2 °F - 48.2 °F 38% 29.64 in 10.0 mi SSW 17.3 mph 21.9 mph N/A   Scattered Clouds
5:11 PM 75.2 °F - 44.6 °F 34% 29.64 in 10.0 mi SSW 11.5 mph 16.1 mph N/A   Clear
5:31 PM 75.2 °F - 44.6 °F 34% 29.65 in 10.0 mi SSW 15.0 mph 21.9 mph N/A   Scattered Clouds
5:51 PM 73.4 °F - 44.6 °F 36% 29.66 in 10.0 mi SSW 12.7 mph 24.2 mph N/A   Clear
6:12 PM 73.4 °F - 44.6 °F 36% 29.66 in 10.0 mi South 13.8 mph 19.6 mph N/A   Scattered Clouds
6:32 PM 73.4 °F - 46.4 °F 38% 29.67 in 10.0 mi South 15.0 mph 19.6 mph N/A   Scattered Clouds
6:52 PM 73.4 °F - 48.2 °F 41% 29.67 in 10.0 mi South 12.7 mph - N/A   Clear
7:12 PM 73.4 °F - 48.2 °F 41% 29.67 in 10.0 mi South 12.7 mph 19.6 mph N/A   Scattered Clouds
7:32 PM 71.6 °F - 48.2 °F 43% 29.67 in 10.0 mi South 8.1 mph - N/A   Clear
7:52 PM 71.6 °F - 48.2 °F 43% 29.68 in 10.0 mi South 8.1 mph - N/A   Scattered Clouds
8:12 PM 69.8 °F - 46.4 °F 43% 29.68 in 10.0 mi SE 5.8 mph - N/A   Mostly Cloudy
8:52 PM 57.2 °F - 53.6 °F 88% 29.79 in 2.5 mi WSW 26.5 mph 52.9 mph N/A Rain Heavy Rain
9:13 PM 57.2 °F - 53.6 °F 88% 29.79 in 10.0 mi West 12.7 mph - N/A Rain Light Rain
9:33 PM 57.2 °F - 53.6 °F 88% 29.81 in 10.0 mi WSW 10.4 mph - N/A   Overcast
9:53 PM 59.0 °F - 51.8 °F 77% 29.81 in 10.0 mi SW 11.5 mph 18.4 mph N/A Rain Light Rain
10:13 PM 57.2 °F - 53.6 °F 88% 29.79 in 7.0 mi Calm Calm - N/A Rain Rain
10:33 PM 55.4 °F - 53.6 °F 94% 29.79 in 10.0 mi East 3.5 mph - N/A   Mostly Cloudy
10:53 PM 55.4 °F - 53.6 °F 94% 29.80 in 10.0 mi SE 3.5 mph - N/A   Scattered Clouds
11:13 PM 55.4 °F - 53.6 °F 94% 29.79 in 10.0 mi ESE 5.8 mph - N/A Rain Light Rain
11:33 PM 55.4 °F - 53.6 °F 94% 29.79 in 10.0 mi ESE 6.9 mph - N/A   Mostly Cloudy
11:53 PM 55.4 °F - 53.6 °F 94% 29.81 in 10.0 mi SE 11.5 mph - N/A Rain Light Rain